Regional Weather Roundup
Issued by NWS State College, PA

Home | Current Version | Previous Version | Graphics & Text | Print | Product List | Glossary On
Versions: 1 2 3 4 5 6 7 8 9 10 11 12 13 14 15 16 17 18 19 20 21 22 23 24 25 26 27 28 29 30 31 32 33 34 35 36 37 38 39 40 41 42 43 44 45 46 47 48 49 50
000
ASUS41 KCTP 291603
RWRCTP

REGIONAL WEATHER ROUNDUP
NATIONAL WEATHER SERVICE STATE COLLEGE PA
1200 PM EDT FRI AUG 29 2014

Note: "fair" indicates few or no clouds below 12,000 feet with no
significant weather and/or obstructions to visibility.

* = STATION THAT DOES NOT REPORT PRECIPITATION /E.G. RAIN...SNOW...ETC/
    THUNDER OR FOG.

PAZ002>004-007>009-013>016-020>023-029>032-291700-
WESTERN PENNSYLVANIA

CITY           SKY/WX    TMP DP  RH WIND       PRES   REMARKS
ERIE           MOSUNNY   71  47  42 SE10      30.18S
MEADVILLE      SUNNY     67  48  50 E6        30.20R
FRANKLIN*      SUNNY     66  48  52 E10       30.21S
NEW CASTLE     FAIR      70  56  61 VRB3      30.19F
BEAVER COUNTY  SUNNY     70  54  56 CALM      30.18F
BUTLER*        SUNNY     68  54  60 SE8       30.21R
PITTSBURGH INT PTSUNNY   70  53  54 SE6       30.18S
PITTSBURGH     SUNNY     70  54  56 E5        30.17F
INDIANA*       SUNNY     70  52  52 VRB7      30.23F
LATROBE        MOSUNNY   70  55  60 VRB3      30.19F
WASHINGTON CO* SUNNY     72  57  60 NE6       30.18S
$$

PAZ004>006-010>012-017>019-024>028-033>037-041-042-045-046-049>053-291700-
CENTRAL PENNSYLVANIA

CITY           SKY/WX    TMP DP  RH WIND       PRES   REMARKS
BRADFORD       PTSUNNY   64  47  53 SE8       30.23S
DUBOIS         NOT AVBL
CLEARFIELD     MOSUNNY   67  51  56 VRB6      30.22F
JOHNSTOWN      SUNNY     65  50  58 SE8       30.22F
ALTOONA        SUNNY     67  50  54 E3        30.23F
STATE COLLEGE  MOSUNNY   66  54  63 VRB5      30.23F
WILLIAMSPORT   MOSUNNY   68  52  56 S5        30.21F
SELINSGROVE    MOSUNNY   71  54  54 VRB3      30.22F
FT INDIANTOWN  PTSUNNY   71  51  48 VRB5      30.22S
CAPITAL CITY   MOSUNNY   70  49  47 VRB3      30.22F
HARRISBURG     PTSUNNY   72  52  49 SW3       30.21F
YORK           MOSUNNY   72  51  47 N5        30.21
$$

PAZ038>040-043-044-047-048-054-055-060>062-067>071-291700-
EASTERN PENNSYLVANIA

CITY           SKY/WX    TMP DP  RH WIND       PRES   REMARKS
SCRANTON       MOSUNNY   69  52  54 NW5       30.21F
MOUNT POCONO   SUNNY     66  47  50 CALM      30.23F
ALLENTOWN      MOSUNNY   74  52  46 VRB3      30.20F
QUAKERTOWN*    MOSUNNY   73  50  43 MISG      30.21F
READING        PTSUNNY   73  51  46 MISG      30.20F
LANCASTER      MOSUNNY   70  51  51 VRB3      30.22S
COATESVILLE    MOSUNNY   72  54  53 CALM      30.22F
POTTSTOWN      MOSUNNY   73  49  42 CALM      30.21F
BLUE BELL      SUNNY     73  48  40 N5        30.20R
DOYLESTOWN     SUNNY     75  50  41 MISG      30.20S
WILLOW GROVE   NOT AVBL
NORTH PHILA    SUNNY     75  47  36 VRB5      30.21S
PHILADELPHIA   PTSUNNY   75  48  38 VRB3      30.20S
$$


USA.gov is the U.S. government's official web portal to all federal, state and local government web resources and services.